Livermore, CA

9:48 AM PDT on April 29, 2017 (GMT -0700)
Livermore Municipal

Weather History for KLVK - November, 2012

Change the Weather History Date:

Wednesday, November 28, 2012

  Actual Average Record
Temperature  
Mean Temperature 56 °F 50 °F  
Max Temperature 64 °F 59 °F 74 °F (1958)
Min Temperature 47 °F 40 °F 27 °F (1948)
Degree Days  
Heating Degree Days 9 15  
Month to date heating degree days 259 312  
Since 1 July heating degree days 346 440  
Cooling Degree Days 0 0  
Month to date cooling degree days 0 0  
Year to date cooling degree days 957 829  
Growing Degree Days 5 (Base 50)    
Moisture  
Dew Point 51 °F    
Average Humidity 80    
Maximum Humidity 93    
Minimum Humidity 67    
Precipitation  
Precipitation 0.43 in 0.06 in 1.26 in (1970)
Month to date precipitation 1.74 1.84  
Year to date precipitation 9.20 12.89  
Since 1 July precipitation 2.14  
Sea Level Pressure  
Sea Level Pressure 29.94 in    
Wind  
Wind Speed 4 mph (SSW)    
Max Wind Speed 25 mph    
Max Gust Speed 31 mph    
Visibility 7 miles    
Events Rain    
T = Trace of Precipitation, MM = Missing Value Source: NWS Daily Summary

Daily Weather History Graph

Daily Weather History Graph

Search for Another Location

Airport or City:

Trip Planner

Search our weather history database for the weather conditions in past years. The results will help you decide how hot, cold, wet, or windy it might be!

Date:

Astronomy

Nov. 28, 2012 Rise Set
Actual Time 7:01 AM PST 4:49 PM PST
Civil Twilight 6:32 AM PST 5:18 PM PST
Nautical Twilight 6:00 AM PST 5:50 PM PST
Astronomical Twilight 5:28 AM PST 6:22 PM PST
Moon 5:08 PM PST (11/28) 7:03 AM PST (11/28)
Length of Visible Light 10h 45m
Length of Day
9h 48m
Full, 100% of the Moon is Illuminated
Nov 28
Full
Dec 6
Last Quarter
Dec 13
New
Dec 19
First Quarter
Dec 28
Full

Hourly Weather History & Observations

Time (PST) Temp. Dew Point Humidity Pressure Visibility Wind Dir Wind Speed Gust Speed Precip Events Conditions
12:53 AM 50.0 °F 46.9 °F 89% 29.98 in 6.0 mi Calm Calm - N/A   Clear
1:53 AM 48.9 °F 46.0 °F 90% 29.95 in 6.0 mi Calm Calm - N/A   Clear
2:53 AM 48.0 °F 46.0 °F 93% 29.94 in 5.0 mi Calm Calm - N/A   Clear
3:53 AM 50.0 °F 46.9 °F 89% 29.91 in 8.0 mi ESE 3.5 mph - N/A   Clear
4:53 AM 50.0 °F 48.0 °F 93% 29.92 in 6.0 mi Calm Calm - 0.00 in Rain Light Rain
5:53 AM 50.0 °F 48.0 °F 93% 29.91 in 5.0 mi East 4.6 mph - 0.00 in   Overcast
6:53 AM 53.1 °F 48.9 °F 86% 29.92 in 5.0 mi ENE 6.9 mph - 0.00 in   Overcast
7:53 AM 55.0 °F 48.0 °F 77% 29.90 in 9.0 mi ENE 5.8 mph - 0.00 in Rain Light Rain
8:53 AM 59.0 °F 48.9 °F 69% 29.88 in 10.0 mi ESE 8.1 mph - 0.01 in Rain Light Rain
9:53 AM 60.1 °F 51.1 °F 72% 29.86 in 10.0 mi Calm Calm - 0.01 in   Overcast
10:53 AM 62.1 °F 54.0 °F 75% 29.88 in 10.0 mi SW 12.7 mph 21.9 mph 0.01 in Rain Light Rain
11:47 AM 57.2 °F 55.4 °F 94% 29.90 in 1.5 mi SW 24.2 mph 31.1 mph 0.14 in Rain Heavy Rain
11:51 AM 57.2 °F 55.4 °F 94% 29.90 in 0.8 mi SSW 12.7 mph 31.1 mph 0.21 in Rain Heavy Rain
11:53 AM 57.9 °F 55.0 °F 90% 29.91 in 0.8 mi SSW 13.8 mph 31.1 mph 0.24 in Rain Heavy Rain
12:05 PM 57.2 °F 55.4 °F 94% 29.91 in 1.8 mi SW 18.4 mph 25.3 mph 0.07 in Rain Light Rain
12:10 PM 57.2 °F 55.4 °F 94% 29.91 in 3.0 mi SW 15.0 mph 25.3 mph 0.09 in Rain Rain
12:31 PM 57.2 °F 55.4 °F 94% 29.91 in 2.5 mi WSW 17.3 mph 25.3 mph 0.14 in Rain Light Rain
12:38 PM 59.0 °F 55.4 °F 88% 29.92 in 9.0 mi SW 11.5 mph 25.3 mph 0.14 in Rain Light Rain
12:53 PM 60.1 °F 57.0 °F 90% 29.92 in 10.0 mi WSW 9.2 mph - 0.14 in Rain Light Rain
1:53 PM 61.0 °F 55.9 °F 83% 29.93 in 10.0 mi SW 10.4 mph 19.6 mph 0.01 in   Mostly Cloudy
2:53 PM 61.0 °F 54.0 °F 78% 29.95 in 10.0 mi WSW 9.2 mph - 0.01 in   Mostly Cloudy
3:53 PM 61.0 °F 52.0 °F 72% 29.97 in 10.0 mi SW 4.6 mph - N/A   Mostly Cloudy
4:53 PM 57.9 °F 52.0 °F 81% 29.99 in 10.0 mi Calm Calm - N/A   Scattered Clouds
5:53 PM 57.0 °F 51.1 °F 81% 30.00 in 10.0 mi Calm Calm - N/A   Partly Cloudy
6:53 PM 54.0 °F 51.1 °F 90% 30.01 in 10.0 mi Calm Calm - N/A   Partly Cloudy
7:53 PM 53.1 °F 51.1 °F 93% 30.02 in 10.0 mi NE 4.6 mph - N/A   Clear
8:53 PM 55.0 °F 48.9 °F 80% 30.01 in 10.0 mi Calm Calm - N/A   Clear
9:53 PM 55.9 °F 48.9 °F 77% 30.04 in 10.0 mi West 6.9 mph - N/A   Clear
11:53 PM 57.0 °F 48.9 °F 74% 30.05 in 10.0 mi Calm Calm - N/A   Clear